Flag for France Weather past 2 weeks in Rennes, France

Now
46 °F

Fog.


Feels Like: 46 °F
Forecast: 47 / 64 °F
Wind: 2 mph from Northwest

Location: Rennes Airport

Current Time: Oct 26, 2014 at 8:31:45 AM

Latest Report: Oct 26, 2014 at 7:30 AM


Visibility: 0 mi

Pressure: 30.24 "Hg

Humidity: 93%

Dew point: 45 °F

Location of RennesLocation

Historic Weather in Rennes — Graph

°F

Rennes temperature yesterday

Maximum temperature yesterday: 63 °F (at 2:30 PM)
Minimum temperature yesterday: 50 °F (at 10:00 PM)
Average temperature yesterday: 57 °F

Past Weeks' High & Low Weather Summary

 TemperatureHumidityPressure
High77 °F (Oct 18, 2:30 PM)100% (Oct 12, 4:00 AM)30.42 "Hg (Oct 12, 4:00 AM)
Low41 °F (Oct 14, 6:30 AM)46% (Oct 14, 4:30 PM)29.33 "Hg (Oct 12, 9:30 PM)
Average58 °F84%29.95 "Hg
* Reported Oct 11 8:00 AM — Oct 26 7:30 AM, Rennes, Weather by CustomWeather, © 2014

Note: Actual official high and low records may vary slightly from our data, if they occured in-between our weather recording intervals... More about our weather records

Advertising

Rennes weather history for previous 24 hours

 ConditionsComfort  
Time TempWeatherWind HumidityBarometerVisibility
7:30 AM
Oct 26
46 °FFog.2 mph93%30.24 "Hg0 mi
7:00 AM46 °FFog.2 mph93%30.21 "Hg0 mi
6:30 AM46 °FPassing clouds.3 mph93%30.24 "Hg1 mi
6:00 AM48 °FFog.2 mph94%30.24 "Hg2 mi
5:30 AM48 °FPassing clouds.2 mph94%30.24 "Hg6 mi
5:00 AM48 °FMostly cloudy.2 mph100%30.21 "Hg6 mi
4:30 AM48 °FMostly cloudy.2 mph100%30.21 "Hg6 mi
4:00 AM48 °FMostly cloudy.2 mph100%30.21 "Hg5 mi
3:30 AM50 °FMostly cloudy.2 mph94%30.24 "Hg4 mi
3:00 AM48 °FFog.3 mph100%30.24 "Hg3 mi
2:30 AM48 °FMostly cloudy.1 mph94%30.24 "Hg4 mi
2:00 AM48 °FMostly cloudy.No wind100%30.24 "Hg5 mi
2:30 AM48 °FPassing clouds.2 mph100%30.24 "Hg4 mi
2:00 AM48 °FOvercast.2 mph100%30.24 "HgN/A
1:30 AM48 °FFog.No wind100%30.24 "Hg3 mi
1:00 AM50 °FOvercast.No wind94%30.24 "HgN/A
12:30 AM50 °FOvercast.No wind94%30.24 "HgN/A
12:00 AM50 °FPassing clouds.No wind94%30.24 "HgN/A
11:30 PM
Oct 25
50 °FOvercast.2 mph94%30.24 "HgN/A
11:00 PM50 °FPassing clouds.No wind94%30.24 "HgN/A
10:30 PM50 °FPassing clouds.No wind94%30.21 "HgN/A
10:00 PM50 °FPassing clouds.No wind88%30.21 "HgN/A
9:30 PM52 °FPassing clouds.No wind88%30.21 "HgN/A
9:00 PM54 °FClear.2 mph82%30.21 "HgN/A
8:30 PM55 °FPassing clouds.3 mph77%30.21 "HgN/A
8:00 PM57 °FOvercast.5 mph72%30.21 "HgN/A
7:30 PM57 °FBroken clouds.7 mph77%30.18 "HgN/A
7:00 PM59 °FPartly sunny.6 mph77%30.18 "HgN/A
6:30 PM59 °FScattered clouds.7 mph77%30.18 "HgN/A
6:00 PM61 °FClear.6 mph68%30.15 "HgN/A
5:30 PM61 °FPartly sunny.6 mph72%30.15 "HgN/A
5:00 PM63 °FPartly sunny.6 mph68%30.15 "HgN/A
4:30 PM63 °FPartly sunny.5 mph73%30.15 "HgN/A
4:00 PM63 °FBroken clouds.3 mph73%30.15 "HgN/A
3:30 PM63 °FBroken clouds.5 mph73%30.15 "HgN/A
3:00 PM61 °FPartly sunny.5 mph77%30.15 "HgN/A
2:30 PM63 °FBroken clouds.3 mph73%30.15 "HgN/A
2:00 PM61 °FMore clouds than sun.5 mph77%30.15 "HgN/A
1:30 PM61 °FOvercast.5 mph77%30.15 "HgN/A
1:00 PM61 °FOvercast.6 mph77%30.15 "HgN/A
12:30 PM59 °FOvercast.6 mph88%30.15 "HgN/A
12:00 PM59 °FMostly cloudy.7 mph82%30.15 "HgN/A
11:30 AM59 °FMostly cloudy.7 mph82%30.15 "HgN/A
11:00 AM57 °FOvercast.6 mph88%30.15 "HgN/A
10:30 AM57 °FMostly cloudy.5 mph88%30.12 "HgN/A
10:00 AM57 °FMore clouds than sun.2 mph94%30.12 "HgN/A
9:30 AM55 °FOvercast.3 mph100%30.12 "HgN/A
9:00 AM55 °FOvercast.3 mph100%30.09 "HgN/A
8:30 AM55 °FFog.1 mph100%30.09 "Hg3 mi
8:00 AM57 °FOvercast.3 mph94%30.09 "HgN/A
Weather by CustomWeather, © 2014

See weather overviewHow to use our weather pages